Time,TemperatureF,DewpointF,PressureIn,WindDirection,WindDirectionDegrees,WindSpeedMPH,WindSpeedGustMPH,Humidity,HourlyPrecipIn,Conditions,Clouds,dailyrainin,SolarRadiationWatts/m^2,SoftwareType,DateUTC
2013-10-23 00:00:00,52.5,50.0,29.76,SW,228,0.0,0.0,91,0.00,,---,0.00,0.00,VWS V14.01,2013-10-23 04:00:00,
2013-10-23 00:01:00,52.5,50.0,29.76,SW,228,0.0,0.0,91,0.00,,---,0.00,0.00,VWS V14.01,2013-10-23 04:01:00,
2013-10-23 00:03:00,52.5,50.0,29.76,SW,228,0.0,0.0,91,0.00,,---,0.00,0.00,VWS V14.01,2013-10-23 04:03:00,
2013-10-23 00:05:00,52.5,50.0,29.77,SW,228,0.0,0.0,91,0.00,,---,0.00,0.00,VWS V14.01,2013-10-23 04:05:00,
2013-10-23 00:10:00,52.4,49.8,29.76,SW,228,0.0,0.0,91,0.00,,---,0.00,0.00,VWS V14.01,2013-10-23 04:10:00,
2013-10-23 00:15:00,52.4,49.8,29.76,SW,228,0.0,0.0,91,0.00,,---,0.00,0.00,VWS V14.01,2013-10-23 04:15:00,
2013-10-23 00:20:00,52.3,49.8,29.75,SW,228,0.0,0.0,91,0.00,,---,0.00,0.00,VWS V14.01,2013-10-23 04:20:00,
2013-10-23 00:26:00,52.1,49.6,29.76,SW,228,0.0,0.0,91,0.00,,---,0.00,0.00,VWS V14.01,2013-10-23 04:26:00,
2013-10-23 00:30:00,51.8,49.3,29.75,SW,228,0.0,0.0,91,0.00,,---,0.00,0.00,VWS V14.01,2013-10-23 04:30:00,
2013-10-23 00:31:00,52.0,49.5,29.75,SW,228,0.0,0.0,91,0.00,,---,0.00,0.00,VWS V14.01,2013-10-23 04:31:00,
2013-10-23 00:36:00,51.9,49.4,29.75,SW,228,0.0,0.0,91,0.00,,---,0.00,0.00,VWS V14.01,2013-10-23 04:36:00,
2013-10-23 00:40:00,51.7,49.5,29.75,SW,228,0.0,0.0,92,0.00,,---,0.00,0.00,VWS V14.01,2013-10-23 04:40:00,
2013-10-23 00:41:00,51.8,49.3,29.75,SW,228,0.0,0.0,91,0.00,,---,0.00,0.00,VWS V14.01,2013-10-23 04:41:00,
2013-10-23 00:46:00,51.7,49.5,29.75,SW,228,0.0,0.0,92,0.00,,---,0.00,0.00,VWS V14.01,2013-10-23 04:46:00,
2013-10-23 00:50:00,51.7,49.5,29.75,SW,228,0.0,0.0,92,0.00,,---,0.00,0.00,VWS V14.01,2013-10-23 04:50:00,
2013-10-23 00:51:00,51.7,49.5,29.75,SW,228,0.0,0.0,92,0.00,,---,0.00,0.00,VWS V14.01,2013-10-23 04:51:00,
2013-10-23 00:56:00,51.7,49.5,29.75,SW,228,0.0,0.0,92,0.00,,---,0.00,0.00,VWS V14.01,2013-10-23 04:56:00,
2013-10-23 01:00:00,51.7,49.8,29.75,SW,228,0.0,0.0,93,0.00,,---,0.00,0.00,VWS V14.01,2013-10-23 05:00:00,
2013-10-23 01:01:00,51.7,49.5,29.75,SW,228,0.0,0.0,92,0.00,,---,0.00,0.00,VWS V14.01,2013-10-23 05:01:00,
2013-10-23 01:07:00,51.7,49.8,29.75,SW,228,0.0,0.0,93,0.00,,---,0.00,0.00,VWS V14.01,2013-10-23 05:07:00,
2013-10-23 01:10:00,51.8,49.8,29.75,SW,228,0.0,1.0,93,0.00,,---,0.00,0.00,VWS V14.01,2013-10-23 05:10:00,
2013-10-23 01:12:00,51.7,49.8,29.75,SW,228,0.0,0.0,93,0.00,,---,0.00,0.00,VWS V14.01,2013-10-23 05:12:00,
2013-10-23 01:17:00,51.7,49.8,29.75,SW,228,0.0,1.0,93,0.00,,---,0.00,0.00,VWS V14.01,2013-10-23 05:17:00,
2013-10-23 01:20:00,51.8,49.8,29.75,SW,228,0.0,1.0,93,0.00,,---,0.00,0.00,VWS V14.01,2013-10-23 05:20:00,
2013-10-23 01:22:00,51.8,49.8,29.75,SW,228,0.0,1.0,93,0.00,,---,0.00,0.00,VWS V14.01,2013-10-23 05:22:00,
2013-10-23 01:27:00,51.8,49.8,29.75,SW,228,0.0,1.0,93,0.00,,---,0.00,0.00,VWS V14.01,2013-10-23 05:27:00,
2013-10-23 01:30:00,51.8,49.8,29.74,SW,228,1.0,1.0,93,0.00,,---,0.00,0.00,VWS V14.01,2013-10-23 05:30:00,
2013-10-23 01:32:00,51.8,49.8,29.75,SW,228,0.0,1.0,93,0.00,,---,0.00,0.00,VWS V14.01,2013-10-23 05:32:00,
2013-10-23 01:37:00,51.8,49.8,29.74,SW,228,1.0,1.0,93,0.00,,---,0.00,0.00,VWS V14.01,2013-10-23 05:37:00,
2013-10-23 01:40:00,51.6,49.7,29.74,SW,228,0.0,4.0,93,0.00,,---,0.00,0.00,VWS V14.01,2013-10-23 05:40:00,
2013-10-23 01:43:00,51.7,49.8,29.75,SW,228,2.0,4.0,93,0.00,,---,0.00,0.00,VWS V14.01,2013-10-23 05:43:00,
2013-10-23 01:48:00,51.6,49.7,29.75,SW,228,0.0,0.0,93,0.00,,---,0.00,0.00,VWS V14.01,2013-10-23 05:48:00,
2013-10-23 01:50:00,51.5,49.5,29.75,SW,229,0.0,6.0,93,0.00,,---,0.00,0.00,VWS V14.01,2013-10-23 05:50:00,
2013-10-23 01:53:00,51.5,49.5,29.75,SW,228,2.0,3.0,93,0.00,,---,0.00,0.00,VWS V14.01,2013-10-23 05:53:00,
2013-10-23 01:58:00,51.5,49.5,29.75,SW,229,0.0,0.0,93,0.00,,---,0.00,0.00,VWS V14.01,2013-10-23 05:58:00,
2013-10-23 02:00:00,51.4,49.5,29.75,WNW,296,0.0,6.0,93,0.00,,---,0.00,0.00,VWS V14.01,2013-10-23 06:00:00,
2013-10-23 02:03:00,51.5,49.8,29.75,SW,221,3.0,6.0,94,0.00,,---,0.00,0.00,VWS V14.01,2013-10-23 06:03:00,
2013-10-23 02:08:00,51.4,49.5,29.75,WSW,241,5.0,6.0,93,0.00,,---,0.00,0.00,VWS V14.01,2013-10-23 06:08:00,
2013-10-23 02:10:00,51.1,49.2,29.75,SW,233,0.0,6.0,93,0.00,,---,0.00,0.00,VWS V14.01,2013-10-23 06:10:00,
2013-10-23 02:13:00,51.2,49.2,29.75,WSW,240,2.0,6.0,93,0.00,,---,0.00,0.00,VWS V14.01,2013-10-23 06:13:00,
2013-10-23 02:18:00,51.0,49.0,29.75,SW,233,2.0,2.0,93,0.00,,---,0.00,0.00,VWS V14.01,2013-10-23 06:18:00,
2013-10-23 02:20:00,50.7,48.8,29.75,SSW,211,1.0,5.0,93,0.00,,---,0.00,0.00,VWS V14.01,2013-10-23 06:20:00,
2013-10-23 02:23:00,50.8,48.8,29.75,SW,229,2.0,5.0,93,0.00,,---,0.00,0.00,VWS V14.01,2013-10-23 06:23:00,
2013-10-23 02:29:00,50.6,48.7,29.75,SW,214,1.0,3.0,93,0.00,,---,0.00,0.00,VWS V14.01,2013-10-23 06:29:00,
2013-10-23 02:30:00,50.3,47.8,29.75,WSW,244,4.0,11.0,91,0.00,,---,0.00,0.00,VWS V14.01,2013-10-23 06:30:00,
2013-10-23 02:34:00,50.5,48.3,29.75,WNW,298,0.0,7.0,92,0.00,,---,0.00,0.00,VWS V14.01,2013-10-23 06:34:00,
2013-10-23 02:39:00,50.1,47.3,29.75,SW,230,1.0,4.0,90,0.00,,---,0.00,0.00,VWS V14.01,2013-10-23 06:39:00,
2013-10-23 02:40:00,49.8,46.4,29.75,WSW,242,0.0,10.0,88,0.00,,---,0.00,0.00,VWS V14.01,2013-10-23 06:40:00,
2013-10-23 02:44:00,49.9,46.8,29.75,SW,234,2.0,10.0,89,0.00,,---,0.00,0.00,VWS V14.01,2013-10-23 06:44:00,
2013-10-23 02:49:00,49.7,46.3,29.75,WSW,237,1.0,5.0,88,0.00,,---,0.00,0.00,VWS V14.01,2013-10-23 06:49:00,
2013-10-23 02:50:00,49.4,45.7,29.75,SW,215,2.0,10.0,87,0.00,,---,0.00,0.00,VWS V14.01,2013-10-23 06:50:00,
2013-10-23 02:54:00,49.5,46.1,29.74,WNW,292,2.0,10.0,88,0.00,,---,0.00,0.00,VWS V14.01,2013-10-23 06:54:00,
2013-10-23 02:59:00,49.3,45.6,29.75,SW,229,0.0,5.0,87,0.00,,---,0.00,0.00,VWS V14.01,2013-10-23 06:59:00,
2013-10-23 03:00:00,48.9,44.9,29.75,WSW,241,0.0,7.0,86,0.00,,---,0.00,0.00,VWS V14.01,2013-10-23 07:00:00,
2013-10-23 03:04:00,49.0,45.3,29.75,SW,226,7.0,7.0,87,0.00,,---,0.00,0.00,VWS V14.01,2013-10-23 07:04:00,
2013-10-23 03:10:00,48.8,44.8,29.75,SW,234,0.0,7.0,86,0.00,,---,0.00,0.00,VWS V14.01,2013-10-23 07:10:00,
2013-10-23 03:15:00,48.7,44.7,29.75,SW,232,0.0,7.0,86,0.00,,---,0.00,0.00,VWS V14.01,2013-10-23 07:15:00,
2013-10-23 03:20:00,48.5,44.5,29.75,SW,232,0.0,2.0,86,0.00,,---,0.00,0.00,VWS V14.01,2013-10-23 07:20:00,
2013-10-23 03:25:00,48.2,44.2,29.74,SW,232,0.0,2.0,86,0.00,,---,0.00,0.00,VWS V14.01,2013-10-23 07:25:00,
2013-10-23 03:30:00,48.0,44.0,29.74,SW,232,0.0,0.0,86,0.00,,---,0.00,0.00,VWS V14.01,2013-10-23 07:30:00,
2013-10-23 03:35:00,47.9,43.9,29.74,SW,232,0.0,1.0,86,0.00,,---,0.00,0.00,VWS V14.01,2013-10-23 07:35:00,
2013-10-23 03:40:00,47.8,44.4,29.74,SW,232,0.0,1.0,88,0.00,,---,0.00,0.00,VWS V14.01,2013-10-23 07:40:00,
2013-10-23 03:45:00,47.7,44.6,29.73,SW,232,0.0,1.0,89,0.00,,---,0.00,0.00,VWS V14.01,2013-10-23 07:45:00,
2013-10-23 03:50:00,47.7,44.9,29.73,SW,232,0.0,1.0,90,0.00,,---,0.00,0.00,VWS V14.01,2013-10-23 07:50:00,
2013-10-23 03:55:00,47.7,44.9,29.73,SSE,150,3.0,3.0,90,0.00,,---,0.00,0.00,VWS V14.01,2013-10-23 07:55:00,
2013-10-23 04:00:00,47.6,44.8,29.74,WSW,243,0.0,3.0,90,0.00,,---,0.00,0.00,VWS V14.01,2013-10-23 08:00:00,
2013-10-23 04:01:00,47.7,44.9,29.74,WSW,246,0.0,3.0,90,0.00,,---,0.00,0.00,VWS V14.01,2013-10-23 08:01:00,
2013-10-23 04:06:00,47.6,44.8,29.74,WSW,248,0.0,3.0,90,0.00,,---,0.00,0.00,VWS V14.01,2013-10-23 08:06:00,
2013-10-23 04:10:00,47.3,44.5,29.73,SW,235,0.0,1.0,90,0.00,,---,0.00,0.00,VWS V14.01,2013-10-23 08:10:00,
2013-10-23 04:11:00,47.5,44.7,29.74,SW,232,0.0,1.0,90,0.00,,---,0.00,0.00,VWS V14.01,2013-10-23 08:11:00,
2013-10-23 04:16:00,47.4,44.6,29.73,SW,235,0.0,1.0,90,0.00,,---,0.00,0.00,VWS V14.01,2013-10-23 08:16:00,
2013-10-23 04:20:00,47.3,44.5,29.73,SSW,208,0.0,4.0,90,0.00,,---,0.00,0.00,VWS V14.01,2013-10-23 08:20:00,
2013-10-23 04:21:00,47.3,44.5,29.73,SW,234,0.0,0.0,90,0.00,,---,0.00,0.00,VWS V14.01,2013-10-23 08:21:00,
2013-10-23 04:26:00,47.2,44.4,29.73,WSW,256,1.0,4.0,90,0.00,,---,0.00,0.00,VWS V14.01,2013-10-23 08:26:00,
2013-10-23 04:30:00,47.3,44.8,29.72,SSW,208,0.0,1.0,91,0.00,,---,0.00,0.00,VWS V14.01,2013-10-23 08:30:00,
2013-10-23 04:31:00,47.3,44.8,29.73,SSW,208,0.0,1.0,91,0.00,,---,0.00,0.00,VWS V14.01,2013-10-23 08:31:00,
2013-10-23 04:36:00,47.3,44.8,29.73,SSW,208,0.0,1.0,91,0.00,,---,0.00,0.00,VWS V14.01,2013-10-23 08:36:00,
2013-10-23 04:40:00,47.4,44.9,29.72,SSW,208,0.0,2.0,91,0.00,,---,0.00,0.00,VWS V14.01,2013-10-23 08:40:00,
2013-10-23 04:41:00,47.3,44.8,29.72,SSW,208,0.0,1.0,91,0.00,,---,0.00,0.00,VWS V14.01,2013-10-23 08:41:00,
2013-10-23 04:46:00,47.3,44.8,29.72,SSW,208,0.0,1.0,91,0.00,,---,0.00,0.00,VWS V14.01,2013-10-23 08:46:00,
2013-10-23 04:50:00,47.5,45.3,29.72,SSW,208,0.0,1.0,92,0.00,,---,0.00,0.00,VWS V14.01,2013-10-23 08:50:00,
2013-10-23 04:52:00,47.4,45.2,29.72,SSW,208,0.0,1.0,92,0.00,,---,0.00,0.00,VWS V14.01,2013-10-23 08:52:00,
2013-10-23 04:57:00,47.4,45.2,29.72,SSW,208,0.0,1.0,92,0.00,,---,0.00,0.00,VWS V14.01,2013-10-23 08:57:00,
2013-10-23 05:00:00,47.6,45.4,29.72,SSW,208,0.0,1.0,92,0.00,,---,0.00,0.00,VWS V14.01,2013-10-23 09:00:00,
2013-10-23 05:02:00,47.5,45.3,29.72,SSW,208,0.0,0.0,92,0.00,,---,0.00,0.00,VWS V14.01,2013-10-23 09:02:00,
2013-10-23 05:07:00,47.6,45.4,29.72,SSW,208,1.0,1.0,92,0.00,,---,0.00,0.00,VWS V14.01,2013-10-23 09:07:00,
2013-10-23 05:10:00,47.7,45.8,29.72,WNW,293,0.0,2.0,93,0.00,,---,0.00,0.00,VWS V14.01,2013-10-23 09:10:00,
2013-10-23 05:12:00,47.6,45.4,29.72,WNW,294,0.0,2.0,92,0.00,,---,0.00,0.00,VWS V14.01,2013-10-23 09:12:00,
2013-10-23 05:17:00,47.7,45.8,29.72,WNW,293,0.0,2.0,93,0.00,,---,0.00,0.00,VWS V14.01,2013-10-23 09:17:00,
2013-10-23 05:20:00,47.9,46.0,29.71,SSW,196,0.0,3.0,93,0.00,,---,0.00,0.00,VWS V14.01,2013-10-23 09:20:00,
2013-10-23 05:22:00,47.8,45.9,29.71,WNW,288,0.0,1.0,93,0.00,,---,0.00,0.00,VWS V14.01,2013-10-23 09:22:00,
2013-10-23 05:27:00,47.8,45.9,29.71,SSW,196,0.0,3.0,93,0.00,,---,0.00,0.00,VWS V14.01,2013-10-23 09:27:00,
2013-10-23 05:30:00,47.9,46.3,29.71,West,261,0.0,4.0,94,0.00,,---,0.00,0.00,VWS V14.01,2013-10-23 09:30:00,
2013-10-23 05:32:00,47.9,46.0,29.71,WSW,252,0.0,4.0,93,0.00,,---,0.00,0.00,VWS V14.01,2013-10-23 09:32:00,
2013-10-23 05:37:00,47.9,46.3,29.71,West,259,3.0,4.0,94,0.00,,---,0.00,0.00,VWS V14.01,2013-10-23 09:37:00,
2013-10-23 05:40:00,48.0,46.4,29.71,WNW,287,0.0,3.0,94,0.00,,---,0.00,0.00,VWS V14.01,2013-10-23 09:40:00,
2013-10-23 05:42:00,48.0,46.4,29.71,West,279,0.0,3.0,94,0.00,,---,0.00,0.00,VWS V14.01,2013-10-23 09:42:00,
2013-10-23 05:47:00,48.0,46.4,29.71,WNW,287,0.0,3.0,94,0.00,,---,0.00,0.00,VWS V14.01,2013-10-23 09:47:00,
2013-10-23 05:50:00,48.0,46.4,29.72,WNW,302,0.0,3.0,94,0.00,,---,0.00,0.00,VWS V14.01,2013-10-23 09:50:00,
2013-10-23 05:53:00,48.0,46.4,29.71,West,277,0.0,2.0,94,0.00,,---,0.00,0.00,VWS V14.01,2013-10-23 09:53:00,
2013-10-23 05:58:00,48.1,46.5,29.72,WNW,301,0.0,0.0,94,0.00,,---,0.00,0.00,VWS V14.01,2013-10-23 09:58:00,
2013-10-23 06:00:00,48.1,46.5,29.71,WSW,239,0.0,4.0,94,0.00,,---,0.00,0.00,VWS V14.01,2013-10-23 10:00:00,
2013-10-23 06:03:00,48.0,46.4,29.71,WSW,240,0.0,4.0,94,0.00,,---,0.00,0.00,VWS V14.01,2013-10-23 10:03:00,
2013-10-23 06:08:00,48.1,46.5,29.71,WSW,239,0.0,0.0,94,0.00,,---,0.00,0.00,VWS V14.01,2013-10-23 10:08:00,
2013-10-23 06:10:00,48.0,46.4,29.71,SW,236,0.0,7.0,94,0.00,,---,0.00,0.00,VWS V14.01,2013-10-23 10:10:00,
2013-10-23 06:13:00,48.0,46.4,29.71,WSW,239,1.0,2.0,94,0.00,,---,0.00,0.00,VWS V14.01,2013-10-23 10:13:00,
2013-10-23 06:18:00,48.0,46.4,29.71,WSW,237,0.0,2.0,94,0.00,,---,0.00,0.00,VWS V14.01,2013-10-23 10:18:00,
2013-10-23 06:20:00,48.0,46.4,29.71,SW,232,0.0,5.0,94,0.00,,---,0.00,0.00,VWS V14.01,2013-10-23 10:20:00,
2013-10-23 06:23:00,48.0,46.4,29.71,SW,223,2.0,5.0,94,0.00,,---,0.00,0.00,VWS V14.01,2013-10-23 10:23:00,
2013-10-23 06:28:00,48.0,46.4,29.71,WSW,237,1.0,3.0,94,0.00,,---,0.00,0.00,VWS V14.01,2013-10-23 10:28:00,
2013-10-23 06:30:00,47.9,46.3,29.71,WSW,239,2.0,5.0,94,0.00,,---,0.00,0.00,VWS V14.01,2013-10-23 10:30:00,
2013-10-23 06:33:00,48.0,46.4,29.70,WSW,258,0.0,5.0,94,0.00,,---,0.00,0.00,VWS V14.01,2013-10-23 10:33:00,
2013-10-23 06:38:00,47.9,46.3,29.70,WNW,290,1.0,3.0,94,0.00,,---,0.00,0.00,VWS V14.01,2013-10-23 10:38:00,
2013-10-23 06:40:00,47.9,46.3,29.70,West,275,0.0,7.0,94,0.00,,---,0.00,0.00,VWS V14.01,2013-10-23 10:40:00,
2013-10-23 06:43:00,47.9,46.3,29.70,SW,233,1.0,7.0,94,0.00,,---,0.00,0.00,VWS V14.01,2013-10-23 10:43:00,
2013-10-23 06:49:00,47.9,46.3,29.70,WSW,255,2.0,2.0,94,0.00,,---,0.00,0.00,VWS V14.01,2013-10-23 10:49:00,
2013-10-23 06:50:00,48.0,46.4,29.70,SW,227,2.0,6.0,94,0.00,,---,0.00,0.00,VWS V14.01,2013-10-23 10:50:00,
2013-10-23 06:54:00,47.9,46.3,29.70,NW,319,0.0,2.0,94,0.00,,---,0.00,0.00,VWS V14.01,2013-10-23 10:54:00,
2013-10-23 06:59:00,48.0,46.4,29.70,South,182,0.0,3.0,94,0.00,,---,0.00,0.00,VWS V14.01,2013-10-23 10:59:00,
2013-10-23 07:00:00,48.0,46.4,29.70,SW,232,3.0,5.0,94,0.00,,---,0.00,0.00,VWS V14.01,2013-10-23 11:00:00,
2013-10-23 07:04:00,48.0,46.4,29.70,West,273,0.0,3.0,94,0.00,,---,0.00,0.00,VWS V14.01,2013-10-23 11:04:00,
2013-10-23 07:09:00,48.0,46.4,29.70,WSW,250,1.0,4.0,94,0.00,,---,0.00,0.00,VWS V14.01,2013-10-23 11:09:00,
2013-10-23 07:10:00,48.1,46.5,29.70,WSW,246,0.0,5.0,94,0.00,,---,0.00,0.00,VWS V14.01,2013-10-23 11:10:00,
2013-10-23 07:14:00,48.1,46.5,29.70,SW,214,3.0,5.0,94,0.00,,---,0.00,0.00,VWS V14.01,2013-10-23 11:14:00,
2013-10-23 07:19:00,48.1,46.5,29.70,WSW,246,0.0,4.0,94,0.00,,---,0.00,0.00,VWS V14.01,2013-10-23 11:19:00,
2013-10-23 07:20:00,48.1,46.5,29.70,WSW,244,1.0,9.0,94,0.00,,---,0.00,0.00,VWS V14.01,2013-10-23 11:20:00,
2013-10-23 07:24:00,48.2,46.6,29.70,SW,216,0.0,9.0,94,0.00,,---,0.00,0.00,VWS V14.01,2013-10-23 11:24:00,
2013-10-23 07:29:00,48.2,46.6,29.70,WSW,245,0.0,4.0,94,0.00,,---,0.00,0.00,VWS V14.01,2013-10-23 11:29:00,
2013-10-23 07:30:00,48.2,46.6,29.71,SW,225,0.0,4.0,94,0.00,,---,0.00,0.00,VWS V14.01,2013-10-23 11:30:00,
2013-10-23 07:34:00,48.2,46.6,29.71,West,260,0.0,4.0,94,0.00,,---,0.00,0.00,VWS V14.01,2013-10-23 11:34:00,
2013-10-23 07:39:00,48.1,46.5,29.71,SW,225,0.0,4.0,94,0.00,,---,0.00,0.00,VWS V14.01,2013-10-23 11:39:00,
2013-10-23 07:40:00,48.0,46.4,29.71,SW,228,0.0,4.0,94,0.00,,---,0.00,0.00,VWS V14.01,2013-10-23 11:40:00,
2013-10-23 07:45:00,48.0,46.4,29.71,SW,228,0.0,4.0,94,0.00,,---,0.00,0.00,VWS V14.01,2013-10-23 11:45:00,
2013-10-23 07:50:00,47.9,46.3,29.71,SW,228,1.0,2.0,94,0.00,,---,0.00,0.00,VWS V14.01,2013-10-23 11:50:00,
2013-10-23 07:55:00,47.9,46.3,29.71,WSW,240,1.0,7.0,94,0.00,,---,0.00,5.00,VWS V14.01,2013-10-23 11:55:00,
2013-10-23 08:00:00,47.9,46.0,29.72,SW,221,1.0,7.0,93,0.00,,---,0.00,7.00,VWS V14.01,2013-10-23 12:00:00,
2013-10-23 08:05:00,47.9,46.0,29.72,WSW,238,5.0,9.0,93,0.00,,---,0.00,12.00,VWS V14.01,2013-10-23 12:05:00,
2013-10-23 08:10:00,48.0,45.8,29.72,West,279,0.0,6.0,92,0.00,,---,0.00,9.00,VWS V14.01,2013-10-23 12:10:00,
2013-10-23 08:15:00,48.2,45.7,29.72,WSW,252,3.0,14.0,91,0.00,,---,0.00,21.00,VWS V14.01,2013-10-23 12:15:00,
2013-10-23 08:20:00,48.3,45.5,29.72,WSW,248,0.0,11.0,90,0.00,,---,0.00,18.00,VWS V14.01,2013-10-23 12:20:00,
2013-10-23 08:25:00,48.3,45.5,29.72,SW,232,10.0,13.0,90,0.00,,---,0.00,28.00,VWS V14.01,2013-10-23 12:25:00,
2013-10-23 08:30:00,48.2,44.8,29.72,SW,227,7.0,11.0,88,0.00,,---,0.00,25.00,VWS V14.01,2013-10-23 12:30:00,
2013-10-23 08:35:00,48.1,44.4,29.73,SW,235,1.0,15.0,87,0.00,,---,0.00,54.00,VWS V14.01,2013-10-23 12:35:00,
2013-10-23 08:40:00,48.1,44.1,29.73,WSW,247,9.0,13.0,86,0.00,,---,0.00,58.00,VWS V14.01,2013-10-23 12:40:00,
2013-10-23 08:46:00,48.2,44.2,29.74,WSW,238,4.0,13.0,86,0.00,,---,0.00,39.00,VWS V14.01,2013-10-23 12:46:00,
2013-10-23 08:50:00,48.3,44.0,29.74,SW,221,5.0,16.0,85,0.00,,---,0.00,44.00,VWS V14.01,2013-10-23 12:50:00,
2013-10-23 08:51:00,48.3,44.0,29.74,WSW,242,3.0,12.0,85,0.00,,---,0.00,51.00,VWS V14.01,2013-10-23 12:51:00,
2013-10-23 08:56:00,48.3,44.0,29.74,SW,236,6.0,16.0,85,0.00,,---,0.00,35.00,VWS V14.01,2013-10-23 12:56:00,
2013-10-23 09:00:00,48.3,44.0,29.74,SW,225,6.0,13.0,85,0.00,,---,0.00,54.00,VWS V14.01,2013-10-23 13:00:00,
2013-10-23 09:01:00,48.3,44.0,29.74,SW,232,8.0,13.0,85,0.00,,---,0.00,42.00,VWS V14.01,2013-10-23 13:01:00,
2013-10-23 09:06:00,48.3,44.0,29.74,SW,221,6.0,13.0,85,0.00,,---,0.00,49.00,VWS V14.01,2013-10-23 13:06:00,
2013-10-23 09:10:00,48.4,43.8,29.75,SW,231,1.0,16.0,84,0.00,,---,0.00,54.00,VWS V14.01,2013-10-23 13:10:00,
2013-10-23 09:11:00,48.4,44.1,29.75,WSW,258,2.0,16.0,85,0.00,,---,0.00,60.00,VWS V14.01,2013-10-23 13:11:00,
2013-10-23 09:16:00,48.4,44.1,29.75,WSW,239,2.0,16.0,85,0.00,,---,0.00,58.00,VWS V14.01,2013-10-23 13:16:00,
2013-10-23 09:20:00,48.5,43.3,29.76,North,360,8.0,19.0,82,0.00,,---,0.00,104.00,VWS V14.01,2013-10-23 13:20:00,
2013-10-23 09:21:00,48.4,43.5,29.75,SW,234,11.0,15.0,83,0.00,,---,0.00,83.00,VWS V14.01,2013-10-23 13:21:00,
2013-10-23 09:26:00,48.5,43.3,29.75,SW,234,5.0,19.0,82,0.00,,---,0.00,95.00,VWS V14.01,2013-10-23 13:26:00,
2013-10-23 09:30:00,48.5,43.3,29.75,SW,228,1.0,19.0,82,0.00,,---,0.00,104.00,VWS V14.01,2013-10-23 13:30:00,
2013-10-23 09:31:00,48.5,43.3,29.75,SW,219,3.0,19.0,82,0.00,,---,0.00,62.00,VWS V14.01,2013-10-23 13:31:00,
2013-10-23 09:36:00,48.5,43.0,29.75,WNW,282,2.0,19.0,81,0.00,,---,0.00,105.00,VWS V14.01,2013-10-23 13:36:00,
2013-10-23 09:40:00,48.6,42.7,29.76,SSW,211,5.0,14.0,80,0.00,,---,0.00,113.00,VWS V14.01,2013-10-23 13:40:00,
2013-10-23 09:42:00,48.5,43.0,29.76,SW,215,7.0,14.0,81,0.00,,---,0.00,123.00,VWS V14.01,2013-10-23 13:42:00,
2013-10-23 09:47:00,48.6,42.7,29.76,SSW,210,5.0,14.0,80,0.00,,---,0.00,98.00,VWS V14.01,2013-10-23 13:47:00,
2013-10-23 09:50:00,48.9,42.7,29.76,WSW,244,10.0,14.0,79,0.00,,---,0.00,125.00,VWS V14.01,2013-10-23 13:50:00,
2013-10-23 09:52:00,48.6,42.7,29.76,SSW,209,0.0,14.0,80,0.00,,---,0.00,169.00,VWS V14.01,2013-10-23 13:52:00,
2013-10-23 09:57:00,48.8,42.6,29.76,WSW,238,7.0,14.0,79,0.00,,---,0.00,125.00,VWS V14.01,2013-10-23 13:57:00,
2013-10-23 10:00:00,48.9,41.7,29.76,SW,227,6.0,19.0,76,0.00,,---,0.00,44.00,VWS V14.01,2013-10-23 14:00:00,
2013-10-23 10:02:00,48.9,42.0,29.76,SSW,199,5.0,19.0,77,0.00,,---,0.00,127.00,VWS V14.01,2013-10-23 14:02:00,
2013-10-23 10:07:00,48.9,41.3,29.76,SW,225,6.0,19.0,75,0.00,,---,0.00,44.00,VWS V14.01,2013-10-23 14:07:00,
2013-10-23 10:10:00,48.8,41.9,29.77,SW,219,11.0,13.0,77,0.00,,---,0.00,79.00,VWS V14.01,2013-10-23 14:10:00,
2013-10-23 10:12:00,48.8,41.9,29.76,South,190,6.0,13.0,77,0.00,,---,0.00,88.00,VWS V14.01,2013-10-23 14:12:00,
2013-10-23 10:17:00,48.8,41.9,29.77,SW,232,6.0,13.0,77,0.00,,---,0.00,79.00,VWS V14.01,2013-10-23 14:17:00,
2013-10-23 10:20:00,48.9,41.3,29.77,NNW,333,1.0,16.0,75,0.00,,---,0.00,65.00,VWS V14.01,2013-10-23 14:20:00,
2013-10-23 10:22:00,48.8,41.2,29.76,WNW,286,0.0,15.0,75,0.00,,---,0.00,49.00,VWS V14.01,2013-10-23 14:22:00,
2013-10-23 10:27:00,48.9,41.3,29.77,North,360,5.0,16.0,75,0.00,,---,0.00,74.00,VWS V14.01,2013-10-23 14:27:00,
2013-10-23 10:30:00,49.0,40.4,29.77,WNW,294,2.0,19.0,72,0.00,,---,0.00,100.00,VWS V14.01,2013-10-23 14:30:00,
2013-10-23 10:32:00,49.0,41.1,29.77,SSW,209,10.0,17.0,74,0.00,,---,0.00,81.00,VWS V14.01,2013-10-23 14:32:00,
2013-10-23 10:37:00,49.0,40.4,29.77,WNW,294,2.0,19.0,72,0.00,,---,0.00,100.00,VWS V14.01,2013-10-23 14:37:00,
2013-10-23 10:40:00,49.5,41.2,29.77,SW,221,13.0,20.0,73,0.00,,---,0.00,141.00,VWS V14.01,2013-10-23 14:40:00,
2013-10-23 10:43:00,49.2,40.9,29.77,West,279,6.0,20.0,73,0.00,,---,0.00,232.00,VWS V14.01,2013-10-23 14:43:00,
2013-10-23 10:48:00,49.5,41.2,29.78,WSW,254,11.0,13.0,73,0.00,,---,0.00,141.00,VWS V14.01,2013-10-23 14:48:00,
2013-10-23 10:50:00,49.7,40.0,29.77,WSW,244,4.0,18.0,69,0.00,,---,0.00,186.00,VWS V14.01,2013-10-23 14:50:00,
2013-10-23 10:53:00,49.7,40.0,29.78,SSW,209,13.0,18.0,69,0.00,,---,0.00,158.00,VWS V14.01,2013-10-23 14:53:00,
2013-10-23 10:58:00,49.7,40.0,29.78,NNW,337,5.0,6.0,69,0.00,,---,0.00,186.00,VWS V14.01,2013-10-23 14:58:00,
2013-10-23 11:00:00,49.7,39.6,29.78,NW,314,4.0,19.0,68,0.00,,---,0.00,127.00,VWS V14.01,2013-10-23 15:00:00,
2013-10-23 11:03:00,49.7,39.6,29.78,SW,223,3.0,19.0,68,0.00,,---,0.00,144.00,VWS V14.01,2013-10-23 15:03:00,
2013-10-23 11:08:00,49.7,39.6,29.78,SW,215,3.0,6.0,68,0.00,,---,0.00,135.00,VWS V14.01,2013-10-23 15:08:00,
2013-10-23 11:10:00,49.5,39.8,29.78,SSW,211,1.0,17.0,69,0.00,,---,0.00,102.00,VWS V14.01,2013-10-23 15:10:00,
2013-10-23 11:13:00,49.6,39.9,29.78,SW,233,13.0,17.0,69,0.00,,---,0.00,105.00,VWS V14.01,2013-10-23 15:13:00,
2013-10-23 11:18:00,49.5,39.8,29.78,SSW,213,3.0,4.0,69,0.00,,---,0.00,107.00,VWS V14.01,2013-10-23 15:18:00,
2013-10-23 11:20:00,49.0,40.0,29.79,WSW,237,11.0,12.0,71,0.00,,---,0.00,160.00,VWS V14.01,2013-10-23 15:20:00,
2013-10-23 11:23:00,49.3,39.6,29.79,SW,236,5.0,12.0,69,0.00,,---,0.00,121.00,VWS V14.01,2013-10-23 15:23:00,
2013-10-23 11:28:00,49.0,40.0,29.79,SW,235,5.0,11.0,71,0.00,,---,0.00,155.00,VWS V14.01,2013-10-23 15:28:00,
2013-10-23 11:30:00,48.0,37.2,29.81,WSW,249,6.0,21.0,66,0.00,,---,0.00,149.00,VWS V14.01,2013-10-23 15:30:00,
2013-10-23 11:33:00,48.5,38.4,29.81,West,259,2.0,19.0,68,0.00,,---,0.00,116.00,VWS V14.01,2013-10-23 15:33:00,
2013-10-23 11:38:00,47.9,37.5,29.81,West,276,4.0,10.0,67,0.00,,---,0.00,144.00,VWS V14.01,2013-10-23 15:38:00,
2013-10-23 11:40:00,48.0,37.6,29.81,NW,312,1.0,19.0,67,0.00,,---,0.00,323.00,VWS V14.01,2013-10-23 15:40:00,
2013-10-23 11:43:00,47.8,37.8,29.81,WSW,241,6.0,16.0,68,0.00,,---,0.00,276.00,VWS V14.01,2013-10-23 15:43:00,
2013-10-23 11:49:00,48.1,37.7,29.80,SW,236,3.0,3.0,67,0.00,,---,0.00,192.00,VWS V14.01,2013-10-23 15:49:00,
2013-10-23 11:50:00,48.9,38.4,29.81,WSW,238,9.0,16.0,67,0.00,,---,0.00,146.00,VWS V14.01,2013-10-23 15:50:00,
2013-10-23 11:54:00,48.7,38.2,29.81,SSE,168,3.0,16.0,67,0.00,,---,0.00,227.00,VWS V14.01,2013-10-23 15:54:00,
2013-10-23 11:59:00,48.9,38.4,29.81,South,181,4.0,11.0,67,0.00,,---,0.00,144.00,VWS V14.01,2013-10-23 15:59:00,
2013-10-23 12:00:00,48.3,37.9,29.81,WSW,257,1.0,19.0,67,0.00,,---,0.00,322.00,VWS V14.01,2013-10-23 16:00:00,
2013-10-23 12:04:00,48.7,38.2,29.81,SW,227,15.0,19.0,67,0.00,,---,0.00,186.00,VWS V14.01,2013-10-23 16:04:00,
2013-10-23 12:09:00,48.3,38.2,29.81,South,181,6.0,13.0,68,0.00,,---,0.00,564.00,VWS V14.01,2013-10-23 16:09:00,
2013-10-23 12:10:00,48.3,37.9,29.81,SW,232,7.0,14.0,67,0.00,,---,0.00,165.00,VWS V14.01,2013-10-23 16:10:00,
2013-10-23 12:14:00,48.3,38.2,29.81,SW,235,9.0,14.0,68,0.00,,---,0.00,253.00,VWS V14.01,2013-10-23 16:14:00,
2013-10-23 12:19:00,48.3,38.6,29.81,SSW,204,1.0,14.0,69,0.00,,---,0.00,192.00,VWS V14.01,2013-10-23 16:19:00,
2013-10-23 12:20:00,48.1,38.4,29.81,West,264,9.0,14.0,69,0.00,,---,0.00,202.00,VWS V14.01,2013-10-23 16:20:00,
2013-10-23 12:24:00,48.2,38.2,29.81,SW,236,0.0,14.0,68,0.00,,---,0.00,176.00,VWS V14.01,2013-10-23 16:24:00,
2013-10-23 12:29:00,48.1,38.4,29.82,WNW,283,2.0,13.0,69,0.00,,---,0.00,190.00,VWS V14.01,2013-10-23 16:29:00,
2013-10-23 12:30:00,47.8,38.5,29.82,SW,222,6.0,15.0,70,0.00,,---,0.00,137.00,VWS V14.01,2013-10-23 16:30:00,
2013-10-23 12:34:00,47.9,38.2,29.82,SW,228,5.0,15.0,69,0.00,,---,0.00,190.00,VWS V14.01,2013-10-23 16:34:00,
2013-10-23 12:39:00,47.8,38.5,29.83,SSW,202,6.0,11.0,70,0.00,,---,0.00,128.00,VWS V14.01,2013-10-23 16:39:00,
2013-10-23 12:40:00,47.3,38.0,29.83,SW,230,1.0,22.0,70,0.00,,---,0.00,200.00,VWS V14.01,2013-10-23 16:40:00,
2013-10-23 12:44:00,47.5,38.2,29.83,SSW,213,6.0,14.0,70,0.00,,---,0.00,123.00,VWS V14.01,2013-10-23 16:44:00,
2013-10-23 12:49:00,47.3,38.4,29.82,WSW,248,10.0,11.0,71,0.00,,---,0.00,234.00,VWS V14.01,2013-10-23 16:49:00,
2013-10-23 12:50:00,47.3,38.4,29.83,SSW,202,12.0,20.0,71,0.00,,---,0.00,323.00,VWS V14.01,2013-10-23 16:50:00,
2013-10-23 12:55:00,47.3,38.4,29.83,SW,221,3.0,16.0,71,0.00,,---,0.00,193.00,VWS V14.01,2013-10-23 16:55:00,
2013-10-23 13:00:00,47.3,38.4,29.83,SSW,200,1.0,14.0,71,0.00,,---,0.00,241.00,VWS V14.01,2013-10-23 17:00:00,
2013-10-23 13:05:00,47.5,38.6,29.83,SW,216,3.0,18.0,71,0.00,,---,0.00,253.00,VWS V14.01,2013-10-23 17:05:00,
2013-10-23 13:10:00,47.4,38.5,29.83,South,180,1.0,12.0,71,0.00,,---,0.00,130.00,VWS V14.01,2013-10-23 17:10:00,
2013-10-23 13:15:00,46.9,38.7,29.83,SSW,213,8.0,14.0,73,0.00,,---,0.00,118.00,VWS V14.01,2013-10-23 17:15:00,
2013-10-23 13:20:00,46.3,39.8,29.84,SW,230,1.0,8.0,78,0.00,,---,0.00,148.00,VWS V14.01,2013-10-23 17:20:00,
2013-10-23 13:25:00,45.7,38.9,29.84,WSW,240,10.0,16.0,77,0.00,,---,0.00,77.00,VWS V14.01,2013-10-23 17:25:00,
2013-10-23 13:30:00,45.0,38.9,29.85,SW,231,6.0,17.0,79,0.00,,---,0.00,155.00,VWS V14.01,2013-10-23 17:30:00,
2013-10-23 13:35:00,44.6,39.5,29.85,SW,216,12.0,17.0,82,0.00,,---,0.00,260.00,VWS V14.01,2013-10-23 17:35:00,
2013-10-23 13:40:00,44.9,39.4,29.86,West,261,6.0,19.0,81,0.00,,---,0.00,311.00,VWS V14.01,2013-10-23 17:40:00,
2013-10-23 13:46:00,45.3,39.8,29.86,SW,234,4.0,19.0,81,0.00,,---,0.00,320.00,VWS V14.01,2013-10-23 17:46:00,
2013-10-23 13:50:00,45.4,39.0,29.85,WNW,288,2.0,16.0,78,0.00,,---,0.00,84.00,VWS V14.01,2013-10-23 17:50:00,
2013-10-23 13:51:00,45.6,39.5,29.85,SW,233,5.0,9.0,79,0.00,,---,0.00,192.00,VWS V14.01,2013-10-23 17:51:00,
2013-10-23 13:56:00,45.5,39.0,29.86,WSW,246,4.0,16.0,78,0.00,,---,0.00,91.00,VWS V14.01,2013-10-23 17:56:00,
2013-10-23 14:00:00,45.1,38.7,29.85,SW,218,4.0,16.0,78,0.00,,---,0.00,151.00,VWS V14.01,2013-10-23 18:00:00,
2013-10-23 14:01:00,45.3,38.9,29.85,SSW,193,0.0,16.0,78,0.00,,---,0.00,69.00,VWS V14.01,2013-10-23 18:01:00,
2013-10-23 14:06:00,45.2,39.1,29.85,South,183,10.0,16.0,79,0.00,,---,0.00,127.00,VWS V14.01,2013-10-23 18:06:00,
2013-10-23 14:10:00,45.2,38.4,29.87,West,260,6.0,17.0,77,0.00,,---,0.00,127.00,VWS V14.01,2013-10-23 18:10:00,
2013-10-23 14:11:00,45.1,39.0,29.86,WNW,284,0.0,17.0,79,0.00,,---,0.00,213.00,VWS V14.01,2013-10-23 18:11:00,
2013-10-23 14:16:00,45.2,38.4,29.86,WSW,240,3.0,17.0,77,0.00,,---,0.00,139.00,VWS V14.01,2013-10-23 18:16:00,
2013-10-23 14:20:00,44.8,38.0,29.87,WSW,241,8.0,22.0,77,0.00,,---,0.00,93.00,VWS V14.01,2013-10-23 18:20:00,
2013-10-23 14:21:00,45.1,38.3,29.87,SW,229,5.0,18.0,77,0.00,,---,0.00,125.00,VWS V14.01,2013-10-23 18:21:00,
2013-10-23 14:26:00,44.8,38.0,29.87,SW,227,4.0,22.0,77,0.00,,---,0.00,95.00,VWS V14.01,2013-10-23 18:26:00,
2013-10-23 14:30:00,44.5,37.1,29.87,SW,216,7.0,19.0,75,0.00,,---,0.00,185.00,VWS V14.01,2013-10-23 18:30:00,
2013-10-23 14:32:00,44.6,37.2,29.87,SW,225,13.0,17.0,75,0.00,,---,0.00,118.00,VWS V14.01,2013-10-23 18:32:00,
2013-10-23 14:37:00,44.5,37.1,29.87,WNW,286,6.0,19.0,75,0.00,,---,0.00,169.00,VWS V14.01,2013-10-23 18:37:00,
2013-10-23 14:40:00,44.8,37.0,29.87,WSW,244,14.0,18.0,74,0.00,,---,0.00,176.00,VWS V14.01,2013-10-23 18:40:00,
2013-10-23 14:42:00,44.6,37.2,29.87,SW,217,9.0,15.0,75,0.00,,---,0.00,167.00,VWS V14.01,2013-10-23 18:42:00,
2013-10-23 14:47:00,44.8,37.0,29.87,SW,235,5.0,18.0,74,0.00,,---,0.00,185.00,VWS V14.01,2013-10-23 18:47:00,
2013-10-23 14:50:00,44.9,36.8,29.87,SW,232,10.0,20.0,73,0.00,,---,0.00,97.00,VWS V14.01,2013-10-23 18:50:00,
2013-10-23 14:52:00,44.9,37.1,29.87,SW,227,5.0,20.0,74,0.00,,---,0.00,105.00,VWS V14.01,2013-10-23 18:52:00,
2013-10-23 14:57:00,44.9,36.8,29.87,WSW,244,5.0,20.0,73,0.00,,---,0.00,102.00,VWS V14.01,2013-10-23 18:57:00,
2013-10-23 15:00:00,44.9,36.8,29.88,West,261,18.0,18.0,73,0.00,,---,0.00,204.00,VWS V14.01,2013-10-23 19:00:00,
2013-10-23 15:02:00,44.8,36.7,29.88,SW,223,12.0,12.0,73,0.00,,---,0.00,123.00,VWS V14.01,2013-10-23 19:02:00,
2013-10-23 15:08:00,44.9,36.8,29.88,West,261,18.0,18.0,73,0.00,,---,0.00,204.00,VWS V14.01,2013-10-23 19:08:00,
2013-10-23 15:10:00,45.1,36.6,29.88,NW,320,5.0,17.0,72,0.00,,---,0.00,141.00,VWS V14.01,2013-10-23 19:10:00,
2013-10-23 15:13:00,45.1,37.0,29.88,WSW,246,11.0,17.0,73,0.00,,---,0.00,183.00,VWS V14.01,2013-10-23 19:13:00,
2013-10-23 15:18:00,45.1,36.6,29.88,WSW,240,13.0,13.0,72,0.00,,---,0.00,141.00,VWS V14.01,2013-10-23 19:18:00,
2013-10-23 15:20:00,45.0,36.5,29.89,SW,232,3.0,14.0,72,0.00,,---,0.00,107.00,VWS V14.01,2013-10-23 19:20:00,
2013-10-23 15:23:00,45.1,36.6,29.88,WNW,292,0.0,13.0,72,0.00,,---,0.00,121.00,VWS V14.01,2013-10-23 19:23:00,
2013-10-23 15:28:00,45.0,36.5,29.88,West,271,6.0,12.0,72,0.00,,---,0.00,107.00,VWS V14.01,2013-10-23 19:28:00,
2013-10-23 15:30:00,45.0,36.5,29.89,SSW,213,4.0,14.0,72,0.00,,---,0.00,104.00,VWS V14.01,2013-10-23 19:30:00,
2013-10-23 15:33:00,45.0,36.9,29.89,SW,233,2.0,14.0,73,0.00,,---,0.00,141.00,VWS V14.01,2013-10-23 19:33:00,
2013-10-23 15:38:00,45.0,36.5,29.89,SW,224,3.0,7.0,72,0.00,,---,0.00,104.00,VWS V14.01,2013-10-23 19:38:00,
2013-10-23 15:40:00,44.8,36.3,29.90,SW,225,7.0,13.0,72,0.00,,---,0.00,86.00,VWS V14.01,2013-10-23 19:40:00,
2013-10-23 15:43:00,44.9,36.4,29.89,WSW,239,6.0,13.0,72,0.00,,---,0.00,86.00,VWS V14.01,2013-10-23 19:43:00,
2013-10-23 15:48:00,44.8,36.3,29.90,SSW,212,5.0,7.0,72,0.00,,---,0.00,84.00,VWS V14.01,2013-10-23 19:48:00,
2013-10-23 15:50:00,44.5,36.0,29.90,SW,231,3.0,18.0,72,0.00,,---,0.00,51.00,VWS V14.01,2013-10-23 19:50:00,
2013-10-23 15:54:00,44.7,36.2,29.90,SW,217,13.0,18.0,72,0.00,,---,0.00,62.00,VWS V14.01,2013-10-23 19:54:00,
2013-10-23 15:59:00,44.4,36.0,29.90,SW,235,7.0,14.0,72,0.00,,---,0.00,49.00,VWS V14.01,2013-10-23 19:59:00,
2013-10-23 16:00:00,44.0,35.9,29.91,SSW,194,3.0,16.0,73,0.00,,---,0.00,88.00,VWS V14.01,2013-10-23 20:00:00,
2013-10-23 16:04:00,44.2,36.1,29.90,South,183,6.0,16.0,73,0.00,,---,0.00,70.00,VWS V14.01,2013-10-23 20:04:00,
2013-10-23 16:09:00,44.0,36.3,29.90,SSW,210,6.0,16.0,74,0.00,,---,0.00,91.00,VWS V14.01,2013-10-23 20:09:00,
2013-10-23 16:10:00,43.8,36.4,29.91,SW,218,2.0,16.0,75,0.00,,---,0.00,158.00,VWS V14.01,2013-10-23 20:10:00,
2013-10-23 16:14:00,43.8,36.1,29.91,West,260,6.0,16.0,74,0.00,,---,0.00,114.00,VWS V14.01,2013-10-23 20:14:00,
2013-10-23 16:19:00,43.8,36.1,29.91,SW,236,5.0,11.0,74,0.00,,---,0.00,158.00,VWS V14.01,2013-10-23 20:19:00,
2013-10-23 16:20:00,44.2,36.5,29.92,SW,230,6.0,14.0,74,0.00,,---,0.00,146.00,VWS V14.01,2013-10-23 20:20:00,
2013-10-23 16:24:00,44.0,36.3,29.91,SW,229,5.0,14.0,74,0.00,,---,0.00,167.00,VWS V14.01,2013-10-23 20:24:00,
2013-10-23 16:30:00,44.2,36.1,29.92,SW,225,5.0,14.0,73,0.00,,---,0.00,132.00,VWS V14.01,2013-10-23 20:30:00,
2013-10-23 16:35:00,44.2,36.5,29.91,SW,217,1.0,16.0,74,0.00,,---,0.00,139.00,VWS V14.01,2013-10-23 20:35:00,
2013-10-23 16:40:00,44.1,36.0,29.92,SW,217,0.0,12.0,73,0.00,,---,0.00,88.00,VWS V14.01,2013-10-23 20:40:00,
2013-10-23 16:45:00,44.0,35.9,29.92,SW,233,4.0,14.0,73,0.00,,---,0.00,77.00,VWS V14.01,2013-10-23 20:45:00,
2013-10-23 16:50:00,43.8,35.7,29.92,SW,230,0.0,10.0,73,0.00,,---,0.00,53.00,VWS V14.01,2013-10-23 20:50:00,
2013-10-23 16:55:00,43.7,35.6,29.92,WSW,246,12.0,12.0,73,0.00,,---,0.00,51.00,VWS V14.01,2013-10-23 20:55:00,
2013-10-23 17:00:00,43.7,36.0,29.93,WSW,254,5.0,11.0,74,0.00,,---,0.00,81.00,VWS V14.01,2013-10-23 21:00:00,
2013-10-23 17:01:00,43.7,36.0,29.93,SW,228,2.0,11.0,74,0.00,,---,0.00,69.00,VWS V14.01,2013-10-23 21:01:00,
2013-10-23 17:06:00,43.7,35.6,29.92,WNW,292,1.0,11.0,73,0.00,,---,0.00,81.00,VWS V14.01,2013-10-23 21:06:00,
2013-10-23 17:10:00,43.6,35.9,29.93,WSW,238,3.0,20.0,74,0.00,,---,0.00,81.00,VWS V14.01,2013-10-23 21:10:00,
2013-10-23 17:11:00,43.8,35.7,29.93,WSW,238,4.0,13.0,73,0.00,,---,0.00,77.00,VWS V14.01,2013-10-23 21:11:00,
2013-10-23 17:16:00,43.6,35.5,29.93,SW,216,2.0,20.0,73,0.00,,---,0.00,81.00,VWS V14.01,2013-10-23 21:16:00,
2013-10-23 17:20:00,43.3,35.9,29.94,WNW,286,3.0,15.0,75,0.00,,---,0.00,84.00,VWS V14.01,2013-10-23 21:20:00,
2013-10-23 17:21:00,43.4,35.7,29.93,SW,214,2.0,15.0,74,0.00,,---,0.00,54.00,VWS V14.01,2013-10-23 21:21:00,
2013-10-23 17:26:00,43.3,35.9,29.94,WSW,244,0.0,15.0,75,0.00,,---,0.00,79.00,VWS V14.01,2013-10-23 21:26:00,
2013-10-23 17:30:00,43.1,35.4,29.94,WSW,240,5.0,15.0,74,0.00,,---,0.00,53.00,VWS V14.01,2013-10-23 21:30:00,
2013-10-23 17:31:00,43.2,35.5,29.94,SW,225,13.0,14.0,74,0.00,,---,0.00,53.00,VWS V14.01,2013-10-23 21:31:00,
2013-10-23 17:36:00,43.1,35.0,29.93,South,186,0.0,15.0,73,0.00,,---,0.00,49.00,VWS V14.01,2013-10-23 21:36:00,
2013-10-23 17:40:00,43.0,35.3,29.95,SW,231,5.0,12.0,74,0.00,,---,0.00,47.00,VWS V14.01,2013-10-23 21:40:00,
2013-10-23 17:42:00,43.0,35.6,29.94,SW,229,0.0,9.0,75,0.00,,---,0.00,114.00,VWS V14.01,2013-10-23 21:42:00,
2013-10-23 17:47:00,43.0,35.3,29.95,SW,236,4.0,12.0,74,0.00,,---,0.00,49.00,VWS V14.01,2013-10-23 21:47:00,
2013-10-23 17:50:00,42.9,35.5,29.95,SW,227,0.0,10.0,75,0.00,,---,0.00,30.00,VWS V14.01,2013-10-23 21:50:00,
2013-10-23 17:52:00,42.9,35.2,29.95,WSW,246,0.0,10.0,74,0.00,,---,0.00,35.00,VWS V14.01,2013-10-23 21:52:00,
2013-10-23 17:57:00,42.8,35.4,29.95,SW,227,1.0,10.0,75,0.00,,---,0.00,30.00,VWS V14.01,2013-10-23 21:57:00,
2013-10-23 18:00:00,42.7,35.7,29.96,SW,224,0.0,5.0,76,0.00,,---,0.00,28.00,VWS V14.01,2013-10-23 22:00:00,
2013-10-23 18:02:00,42.8,35.4,29.96,SSW,205,2.0,3.0,75,0.00,,---,0.00,28.00,VWS V14.01,2013-10-23 22:02:00,
2013-10-23 18:07:00,42.7,35.7,29.96,SW,224,0.0,5.0,76,0.00,,---,0.00,28.00,VWS V14.01,2013-10-23 22:07:00,
2013-10-23 18:10:00,42.7,35.7,29.96,West,265,0.0,6.0,76,0.00,,---,0.00,21.00,VWS V14.01,2013-10-23 22:10:00,
2013-10-23 18:13:00,42.7,35.3,29.96,SW,215,1.0,6.0,75,0.00,,---,0.00,26.00,VWS V14.01,2013-10-23 22:13:00,
2013-10-23 18:18:00,42.7,35.3,29.96,SE,146,0.0,1.0,75,0.00,,---,0.00,21.00,VWS V14.01,2013-10-23 22:18:00,
2013-10-23 18:20:00,42.6,35.2,29.97,SSE,160,0.0,7.0,75,0.00,,---,0.00,5.00,VWS V14.01,2013-10-23 22:20:00,
2013-10-23 18:23:00,42.7,35.3,29.96,WSW,238,0.0,7.0,75,0.00,,---,0.00,12.00,VWS V14.01,2013-10-23 22:23:00,
2013-10-23 18:28:00,42.6,35.2,29.97,SSE,160,0.0,0.0,75,0.00,,---,0.00,5.00,VWS V14.01,2013-10-23 22:28:00,
2013-10-23 18:30:00,42.6,34.9,29.97,WNW,290,1.0,7.0,74,0.00,,---,0.00,0.00,VWS V14.01,2013-10-23 22:30:00,
2013-10-23 18:33:00,42.6,34.9,29.97,SW,221,5.0,7.0,74,0.00,,---,0.00,5.00,VWS V14.01,2013-10-23 22:33:00,
2013-10-23 18:38:00,42.6,34.9,29.97,WSW,253,1.0,7.0,74,0.00,,---,0.00,0.00,VWS V14.01,2013-10-23 22:38:00,
2013-10-23 18:40:00,42.5,34.8,29.98,WSW,240,5.0,14.0,74,0.00,,---,0.00,0.00,VWS V14.01,2013-10-23 22:40:00,
2013-10-23 18:43:00,42.5,34.8,29.97,SW,226,10.0,10.0,74,0.00,,---,0.00,0.00,VWS V14.01,2013-10-23 22:43:00,
2013-10-23 18:48:00,42.4,34.7,29.97,SSW,208,1.0,7.0,74,0.00,,---,0.00,0.00,VWS V14.01,2013-10-23 22:48:00,
2013-10-23 18:50:00,42.3,35.0,29.98,SW,217,6.0,9.0,75,0.00,,---,0.00,0.00,VWS V14.01,2013-10-23 22:50:00,
2013-10-23 18:53:00,42.4,35.0,29.98,SW,223,0.0,9.0,75,0.00,,---,0.00,0.00,VWS V14.01,2013-10-23 22:53:00,
2013-10-23 18:58:00,42.3,35.0,29.98,SW,225,1.0,6.0,75,0.00,,---,0.00,0.00,VWS V14.01,2013-10-23 22:58:00,
2013-10-23 19:00:00,42.1,35.1,29.99,WSW,242,1.0,11.0,76,0.00,,---,0.00,0.00,VWS V14.01,2013-10-23 23:00:00,
2013-10-23 19:03:00,42.2,34.9,29.98,SW,233,3.0,11.0,75,0.00,,---,0.00,0.00,VWS V14.01,2013-10-23 23:03:00,
2013-10-23 19:08:00,42.1,35.4,29.99,SW,234,0.0,7.0,77,0.00,,---,0.00,0.00,VWS V14.01,2013-10-23 23:08:00,
2013-10-23 19:10:00,42.0,35.7,29.99,SW,220,2.0,12.0,78,0.00,,---,0.00,0.00,VWS V14.01,2013-10-23 23:10:00,
2013-10-23 19:14:00,42.0,35.3,29.99,WSW,241,0.0,12.0,77,0.00,,---,0.00,0.00,VWS V14.01,2013-10-23 23:14:00,
2013-10-23 19:19:00,42.0,35.7,29.99,WSW,240,1.0,5.0,78,0.00,,---,0.00,0.00,VWS V14.01,2013-10-23 23:19:00,
2013-10-23 19:20:00,41.9,35.5,30.00,SSW,211,1.0,10.0,78,0.00,,---,0.00,0.00,VWS V14.01,2013-10-23 23:20:00,
2013-10-23 19:24:00,42.0,35.7,30.00,West,269,2.0,10.0,78,0.00,,---,0.00,0.00,VWS V14.01,2013-10-23 23:24:00,
2013-10-23 19:29:00,41.9,35.5,30.00,SW,217,0.0,5.0,78,0.00,,---,0.00,0.00,VWS V14.01,2013-10-23 23:29:00,
2013-10-23 19:30:00,41.9,35.5,30.00,South,172,0.0,6.0,78,0.00,,---,0.00,0.00,VWS V14.01,2013-10-23 23:30:00,
2013-10-23 19:34:00,41.9,35.9,30.00,SW,221,0.0,5.0,79,0.00,,---,0.00,0.00,VWS V14.01,2013-10-23 23:34:00,
2013-10-23 19:39:00,41.8,35.8,30.00,South,172,0.0,0.0,79,0.00,,---,0.00,0.00,VWS V14.01,2013-10-23 23:39:00,
2013-10-23 19:40:00,41.8,35.8,30.00,NNE,33,0.0,3.0,79,0.00,,---,0.00,0.00,VWS V14.01,2013-10-23 23:40:00,
2013-10-23 19:44:00,41.8,35.8,30.00,SW,218,0.0,3.0,79,0.00,,---,0.00,0.00,VWS V14.01,2013-10-23 23:44:00,
2013-10-23 19:49:00,41.8,35.8,30.00,SW,226,0.0,3.0,79,0.00,,---,0.00,0.00,VWS V14.01,2013-10-23 23:49:00,
2013-10-23 19:50:00,41.7,35.4,30.00,NNE,33,0.0,3.0,78,0.00,,---,0.00,0.00,VWS V14.01,2013-10-23 23:50:00,
2013-10-23 19:54:00,41.7,35.4,30.00,SW,232,0.0,3.0,78,0.00,,---,0.00,0.00,VWS V14.01,2013-10-23 23:54:00,
2013-10-23 20:00:00,41.6,34.9,30.00,NE,40,1.0,3.0,77,0.00,,---,0.00,0.00,VWS V14.01,2013-10-24 00:00:00,
2013-10-23 20:05:00,41.5,34.8,30.00,ENE,78,0.0,5.0,77,0.00,,---,0.00,0.00,VWS V14.01,2013-10-24 00:05:00,
2013-10-23 20:10:00,41.5,34.8,30.01,NNE,23,1.0,2.0,77,0.00,,---,0.00,0.00,VWS V14.01,2013-10-24 00:10:00,
2013-10-23 20:15:00,41.4,34.4,30.00,ENE,62,0.0,4.0,76,0.00,,---,0.00,0.00,VWS V14.01,2013-10-24 00:15:00,
2013-10-23 20:20:00,41.3,34.7,30.01,South,180,0.0,2.0,77,0.00,,---,0.00,0.00,VWS V14.01,2013-10-24 00:20:00,
2013-10-23 20:25:00,41.3,34.3,30.01,SSW,212,0.0,8.0,76,0.00,,---,0.00,0.00,VWS V14.01,2013-10-24 00:25:00,
2013-10-23 20:30:00,41.2,34.2,30.01,WSW,239,0.0,3.0,76,0.00,,---,0.00,0.00,VWS V14.01,2013-10-24 00:30:00,
2013-10-23 20:35:00,41.1,33.8,30.01,SW,229,2.0,3.0,75,0.00,,---,0.00,0.00,VWS V14.01,2013-10-24 00:35:00,
2013-10-23 20:40:00,40.9,33.6,30.01,SSW,207,0.0,5.0,75,0.00,,---,0.00,0.00,VWS V14.01,2013-10-24 00:40:00,
2013-10-23 20:41:00,41.0,33.7,30.01,SSW,202,0.0,5.0,75,0.00,,---,0.00,0.00,VWS V14.01,2013-10-24 00:41:00,
2013-10-23 20:46:00,40.9,33.6,30.01,SSW,207,0.0,5.0,75,0.00,,---,0.00,0.00,VWS V14.01,2013-10-24 00:46:00,
2013-10-23 20:50:00,40.6,33.3,30.01,SSW,207,0.0,1.0,75,0.00,,---,0.00,0.00,VWS V14.01,2013-10-24 00:50:00,
2013-10-23 20:51:00,40.8,33.5,30.01,SSW,207,0.0,1.0,75,0.00,,---,0.00,0.00,VWS V14.01,2013-10-24 00:51:00,
2013-10-23 20:56:00,40.6,33.3,30.01,SSW,207,0.0,1.0,75,0.00,,---,0.00,0.00,VWS V14.01,2013-10-24 00:56:00,
2013-10-23 21:00:00,40.3,32.7,30.02,ENE,59,0.0,2.0,74,0.00,,---,0.00,0.00,VWS V14.01,2013-10-24 01:00:00,
2013-10-23 21:01:00,40.4,32.8,30.01,SSW,207,0.0,2.0,74,0.00,,---,0.00,0.00,VWS V14.01,2013-10-24 01:01:00,
2013-10-23 21:06:00,40.3,32.7,30.02,ENE,59,0.0,2.0,74,0.00,,---,0.00,0.00,VWS V14.01,2013-10-24 01:06:00,
2013-10-23 21:10:00,40.2,32.2,30.02,NW,321,2.0,6.0,73,0.00,,---,0.00,0.00,VWS V14.01,2013-10-24 01:10:00,
2013-10-23 21:11:00,40.2,32.6,30.02,ENE,59,0.0,1.0,74,0.00,,---,0.00,0.00,VWS V14.01,2013-10-24 01:11:00,
2013-10-23 21:16:00,40.2,32.2,30.02,North,5,0.0,6.0,73,0.00,,---,0.00,0.00,VWS V14.01,2013-10-24 01:16:00,
2013-10-23 21:20:00,40.0,32.1,30.02,SW,221,0.0,4.0,73,0.00,,---,0.00,0.00,VWS V14.01,2013-10-24 01:20:00,
2013-10-23 21:21:00,40.2,32.2,30.02,SW,219,0.0,4.0,73,0.00,,---,0.00,0.00,VWS V14.01,2013-10-24 01:21:00,
2013-10-23 21:27:00,40.0,32.1,30.02,SW,221,0.0,4.0,73,0.00,,---,0.00,0.00,VWS V14.01,2013-10-24 01:27:00,
2013-10-23 21:30:00,39.5,32.6,30.01,SW,221,0.0,2.0,76,0.00,,---,0.00,0.00,VWS V14.01,2013-10-24 01:30:00,
2013-10-23 21:32:00,39.8,32.2,30.02,SW,221,0.0,2.0,74,0.00,,---,0.00,0.00,VWS V14.01,2013-10-24 01:32:00,
2013-10-23 21:37:00,39.5,32.6,30.01,SW,221,0.0,2.0,76,0.00,,---,0.00,0.00,VWS V14.01,2013-10-24 01:37:00,
2013-10-23 21:40:00,38.9,33.0,30.02,SW,221,0.0,0.0,79,0.00,,---,0.00,0.00,VWS V14.01,2013-10-24 01:40:00,
2013-10-23 21:42:00,39.2,32.9,30.01,SW,221,0.0,0.0,78,0.00,,---,0.00,0.00,VWS V14.01,2013-10-24 01:42:00,
2013-10-23 21:47:00,38.9,33.0,30.02,SW,221,0.0,0.0,79,0.00,,---,0.00,0.00,VWS V14.01,2013-10-24 01:47:00,
2013-10-23 21:50:00,38.4,33.1,30.02,SW,221,0.0,1.0,81,0.00,,---,0.00,0.00,VWS V14.01,2013-10-24 01:50:00,
2013-10-23 21:52:00,38.7,33.1,30.02,SW,221,1.0,1.0,80,0.00,,---,0.00,0.00,VWS V14.01,2013-10-24 01:52:00,
2013-10-23 21:57:00,38.4,33.1,30.02,SW,221,0.0,1.0,81,0.00,,---,0.00,0.00,VWS V14.01,2013-10-24 01:57:00,
2013-10-23 22:00:00,38.0,33.0,30.02,SW,221,0.0,1.0,82,0.00,,---,0.00,0.00,VWS V14.01,2013-10-24 02:00:00,
2013-10-23 22:02:00,38.2,33.2,30.02,SW,221,0.0,1.0,82,0.00,,---,0.00,0.00,VWS V14.01,2013-10-24 02:02:00,
2013-10-23 22:07:00,38.0,33.0,30.02,SW,221,0.0,1.0,82,0.00,,---,0.00,0.00,VWS V14.01,2013-10-24 02:07:00,
2013-10-23 22:10:00,37.6,32.6,30.03,SW,221,0.0,0.0,82,0.00,,---,0.00,0.00,VWS V14.01,2013-10-24 02:10:00,
2013-10-23 22:13:00,37.8,32.8,30.02,SW,221,0.0,0.0,82,0.00,,---,0.00,0.00,VWS V14.01,2013-10-24 02:13:00,
2013-10-23 22:18:00,37.6,32.6,30.03,SW,221,0.0,0.0,82,0.00,,---,0.00,0.00,VWS V14.01,2013-10-24 02:18:00,
2013-10-23 22:20:00,37.1,32.4,30.03,SW,221,0.0,0.0,83,0.00,,---,0.00,0.00,VWS V14.01,2013-10-24 02:20:00,
2013-10-23 22:23:00,37.3,32.6,30.03,SW,221,0.0,0.0,83,0.00,,---,0.00,0.00,VWS V14.01,2013-10-24 02:23:00,
2013-10-23 22:28:00,37.1,32.4,30.03,SW,221,0.0,0.0,83,0.00,,---,0.00,0.00,VWS V14.01,2013-10-24 02:28:00,
2013-10-23 22:30:00,36.6,32.2,30.03,SW,221,0.0,0.0,84,0.00,,---,0.00,0.00,VWS V14.01,2013-10-24 02:30:00,
2013-10-23 22:33:00,36.9,32.5,30.03,SW,221,0.0,0.0,84,0.00,,---,0.00,0.00,VWS V14.01,2013-10-24 02:33:00,
2013-10-23 22:38:00,36.5,32.1,30.03,SW,221,0.0,0.0,84,0.00,,---,0.00,0.00,VWS V14.01,2013-10-24 02:38:00,
2013-10-23 22:40:00,36.1,32.0,30.04,SW,221,1.0,1.0,85,0.00,,---,0.00,0.00,VWS V14.01,2013-10-24 02:40:00,
2013-10-23 22:43:00,36.3,32.2,30.03,SW,221,0.0,0.0,85,0.00,,---,0.00,0.00,VWS V14.01,2013-10-24 02:43:00,
2013-10-23 22:48:00,36.1,32.0,30.04,SW,221,0.0,1.0,85,0.00,,---,0.00,0.00,VWS V14.01,2013-10-24 02:48:00,
2013-10-23 22:50:00,36.1,32.3,30.03,SW,216,0.0,2.0,86,0.00,,---,0.00,0.00,VWS V14.01,2013-10-24 02:50:00,
2013-10-23 22:54:00,36.0,32.2,30.04,SW,216,0.0,2.0,86,0.00,,---,0.00,0.00,VWS V14.01,2013-10-24 02:54:00,
2013-10-23 22:59:00,36.1,32.3,30.04,SW,216,0.0,0.0,86,0.00,,---,0.00,0.00,VWS V14.01,2013-10-24 02:59:00,
2013-10-23 23:00:00,36.0,31.9,30.04,SW,216,0.0,1.0,85,0.00,,---,0.00,0.00,VWS V14.01,2013-10-24 03:00:00,
2013-10-23 23:04:00,36.1,32.3,30.04,SW,216,0.0,1.0,86,0.00,,---,0.00,0.00,VWS V14.01,2013-10-24 03:04:00,
2013-10-23 23:09:00,36.0,31.9,30.04,SW,216,0.0,0.0,85,0.00,,---,0.00,0.00,VWS V14.01,2013-10-24 03:09:00,
2013-10-23 23:10:00,35.9,31.8,30.04,WSW,254,0.0,2.0,85,0.00,,---,0.00,0.00,VWS V14.01,2013-10-24 03:10:00,
2013-10-23 23:14:00,36.0,31.9,30.03,WSW,254,2.0,2.0,85,0.00,,---,0.00,0.00,VWS V14.01,2013-10-24 03:14:00,
2013-10-23 23:19:00,35.9,31.8,30.04,WSW,254,1.0,1.0,85,0.00,,---,0.00,0.00,VWS V14.01,2013-10-24 03:19:00,
2013-10-23 23:20:00,36.1,32.0,30.04,WSW,244,0.0,4.0,85,0.00,,---,0.00,0.00,VWS V14.01,2013-10-24 03:20:00,
2013-10-23 23:24:00,36.0,31.9,30.04,WSW,244,0.0,4.0,85,0.00,,---,0.00,0.00,VWS V14.01,2013-10-24 03:24:00,
2013-10-23 23:29:00,36.1,32.0,30.04,WSW,244,0.0,3.0,85,0.00,,---,0.00,0.00,VWS V14.01,2013-10-24 03:29:00,
2013-10-23 23:30:00,36.2,32.1,30.03,WSW,244,0.0,4.0,85,0.00,,---,0.00,0.00,VWS V14.01,2013-10-24 03:30:00,
2013-10-23 23:35:00,36.2,32.1,30.03,WSW,244,0.0,4.0,85,0.00,,---,0.00,0.00,VWS V14.01,2013-10-24 03:35:00,
2013-10-23 23:40:00,36.2,32.1,30.03,WSW,244,0.0,1.0,85,0.00,,---,0.00,0.00,VWS V14.01,2013-10-24 03:40:00,
2013-10-23 23:45:00,36.2,31.8,30.03,WSW,244,0.0,2.0,84,0.00,,---,0.00,0.00,VWS V14.01,2013-10-24 03:45:00,
2013-10-23 23:50:00,36.3,31.9,30.04,WSW,239,3.0,3.0,84,0.00,,---,0.00,0.00,VWS V14.01,2013-10-24 03:50:00,
2013-10-23 23:55:00,36.5,32.1,30.04,SW,236,0.0,4.0,84,0.00,,---,0.00,0.00,VWS V14.01,2013-10-24 03:55:00,